DW4238 Weather Reports


time (UTC)temp
C
wind
direction
speed
KPH
gust
KPH
rain 1hr
cm
rain 24hr
cm
rain mn
cm
humidity
%
barometer
mb
20260510143053 24 89 9.7 19.3 0.00 0.00 0.00 87 1014.1
20260510142554 24 109 11.3 17.7 0.00 0.00 0.00 88 1014.0
20260510141619 23 84 14.5 17.7 0.00 0.00 0.00 88 1014.0
20260510141028 23 79 11.3 16.1 0.00 0.00 0.00 88 1014.0
20260510140048 23 98 9.7 16.1 0.00 0.00 0.00 90 1014.0
20260510135559 23 105 9.7 14.5 0.00 0.00 0.00 90 1014.1
20260510134601 23 90 4.8 14.5 0.00 0.00 0.00 91 1014.0
20260510134111 23 104 9.7 14.5 0.00 0.00 0.00 91 1013.9
20260510133553 23 92 6.4 9.7 0.00 0.00 0.00 91 1013.7
20260510133021 23 128 4.8 12.9 0.00 0.00 0.00 92 1013.5
20260510132524 23 107 8.0 14.5 0.00 0.00 0.00 92 1013.3
20260510131550 22 159 9.7 16.1 0.00 0.00 0.00 93 1013.1
20260510131053 22 117 8.0 12.9 0.00 0.00 0.00 93 1013.0
20260510130054 22 143 9.7 14.5 0.00 0.00 0.00 93 1012.8
20260510125604 22 148 8.0 12.9 0.00 0.00 0.00 93 1012.7
20260510124602 21 136 12.9 16.1 0.00 0.00 0.00 93 1012.6
20260510124052 21 144 11.3 16.1 0.00 0.00 0.00 93 1012.5
20260510123058 21 140 8.0 14.5 0.00 0.00 0.00 93 1012.4
20260510122607 21 142 4.8 12.9 0.00 0.00 0.00 93 1012.2
20260510122111 21 142 6.4 14.5 0.00 0.00 0.00 93 1012.1
20260510121537 21 141 9.7 16.1 0.00 0.00 0.00 93 1012.0
20260510121040 21 148 9.7 16.1 0.00 0.00 0.00 93 1011.9
20260510120043 21 144 4.8 11.3 0.00 0.00 0.00 93 1011.7
20260510115552 21 150 6.4 14.5 0.00 0.00 0.00 93 1011.7
20260510115055 21 145 8.0 12.9 0.00 0.00 0.00 93 1011.6
20260510114525 21 158 8.0 11.3 0.00 0.00 0.00 92 1011.5
20260510114033 21 171 0.0 6.4 0.00 0.00 0.00 92 1011.7
20260510113054 20 174 0.0 0.0 0.00 0.00 0.00 92 1011.6
20260510112557 20 174 0.0 0.0 0.00 0.00 0.00 92 1011.5
20260510112106 20 175 0.0 0.0 0.00 0.00 0.00 92 1011.4
20260510111025 20 178 0.0 4.8 0.00 0.00 0.00 92 1011.0
20260510110051 21 178 1.6 6.4 0.00 0.00 0.00 92 1010.7
20260510105601 21 178 3.2 9.7 0.00 0.00 0.00 92 1010.5
20260510105059 21 180 6.4 14.5 0.00 0.00 0.00 92 1010.4
20260510104528 21 183 9.7 14.5 0.00 0.00 0.00 92 1010.2
20260510104038 21 158 9.7 14.5 0.00 0.00 0.00 92 1010.1
20260510103059 21 178 6.4 11.3 0.00 0.00 0.00 92 1010.0
20260510102602 21 178 8.0 14.5 0.00 0.00 0.00 91 1010.0
20260510102113 21 165 8.0 14.5 0.00 0.00 0.00 92 1010.0
20260510101614 21 167 11.3 14.5 0.00 0.00 0.00 92 1010.0
20260510101027 21 169 9.7 12.9 0.00 0.00 0.00 91 1010.0
20260510100627 21 182 9.7 12.9 0.00 0.00 0.00 91 1009.8
20260510100038 21 183 8.0 12.9 0.00 0.00 0.00 91 1009.8
20260510095549 21 168 11.3 12.9 0.00 0.00 0.00 91 1009.8
20260510094539 21 180 11.3 19.3 0.00 0.00 0.00 91 1009.9
20260510094049 21 174 11.3 17.7 0.00 0.00 0.00 91 1009.9
20260510093049 21 171 12.9 17.7 0.00 0.00 0.00 91 1009.8
20260510092537 21 165 11.3 16.1 0.00 0.00 0.00 90 1009.8
20260510092038 21 165 9.7 16.1 0.00 0.00 0.00 90 1009.8
20260510091607 21 169 9.7 14.5 0.00 0.00 0.00 90 1009.8
20260510091111 21 180 8.0 12.9 0.00 0.00 0.00 90 1009.7
20260510090525 21 167 8.0 12.9 0.00 0.00 0.00 90 1009.8
20260510090025 21 160 9.7 16.1 0.00 0.00 0.00 89 1009.7
20260510085535 21 178 11.3 14.5 0.00 0.00 0.00 89 1009.7
20260510084556 21 176 6.4 11.3 0.00 0.00 0.00 89 1009.9
20260510084108 21 178 8.0 11.3 0.00 0.00 0.00 88 1009.9
20260510083109 21 172 8.0 11.3 0.00 0.00 0.00 88 1010.0
20260510082611 21 184 6.4 11.3 0.00 0.00 0.00 88 1010.0
20260510082121 21 169 8.0 12.9 0.00 0.00 0.00 88 1010.1
20260510081530 21 190 9.7 12.9 0.00 0.00 0.00 87 1010.0
20260510081109 21 177 8.0 11.3 0.00 0.00 0.00 87 1010.0
20260510080523 21 166 9.7 12.9 0.00 0.00 0.00 87 1010.1
20260510080026 21 172 8.0 9.7 0.00 0.00 0.00 87 1010.1
20260510075537 21 178 8.0 9.7 0.00 0.00 0.00 86 1010.0
20260510074557 22 175 9.7 16.1 0.00 0.00 0.00 86 1010.0
20260510074107 22 167 9.7 16.1 0.00 0.00 0.00 85 1010.0
20260510073611 22 181 9.7 17.7 0.00 0.00 0.00 85 1010.2
20260510073037 22 180 11.3 17.7 0.00 0.00 0.00 85 1010.2
20260510072540 22 168 12.9 16.1 0.00 0.00 0.00 85 1010.2
20260510072050 22 171 11.3 19.3 0.00 0.00 0.00 84 1010.2
20260510071522 22 156 12.9 19.3 0.00 0.00 0.00 84 1010.2
20260510071024 22 171 14.5 20.9 0.00 0.00 0.00 84 1010.2
20260510070637 22 184 14.5 20.9 0.00 0.00 0.00 84 1010.2
20260510070027 22 166 12.9 17.7 0.00 0.00 0.00 84 1010.2
20260510065537 22 150 12.9 17.7 0.00 0.00 0.00 84 1010.3
20260510065027 22 167 12.9 19.3 0.00 0.00 0.00 83 1010.2
20260510064547 22 161 14.5 19.3 0.00 0.00 0.00 83 1010.2
20260510064033 22 167 12.9 19.3 0.00 0.00 0.00 83 1010.2
20260510063521 22 152 11.3 17.7 0.00 0.00 0.00 83 1010.3
20260510063101 22 176 12.9 16.1 0.00 0.00 0.00 83 1010.2
20260510062522 22 171 11.3 16.1 0.00 0.00 0.00 83 1010.3
20260510062101 22 159 11.3 16.1 0.00 0.00 0.00 83 1010.4
20260510061551 22 160 12.9 16.1 0.00 0.00 0.00 82 1010.4
20260510061036 22 154 11.3 17.7 0.00 0.00 0.00 82 1010.4
20260510060523 22 144 12.9 16.1 0.00 0.00 0.00 81 1010.4
20260510060022 22 163 12.9 17.7 0.00 0.00 0.00 81 1010.3
20260510055532 22 155 12.9 17.7 0.00 0.00 0.00 81 1010.3
20260510055041 22 146 12.9 17.7 0.00 0.00 0.00 81 1010.3
20260510054553 22 148 12.9 17.7 0.00 0.00 0.00 81 1010.4
20260510054022 22 160 12.9 17.7 0.00 0.00 0.00 81 1010.3
20260510053551 22 146 12.9 17.7 0.00 0.00 0.00 80 1010.4
20260510053031 22 140 11.3 16.1 0.00 0.00 0.00 80 1010.4
20260510052532 22 144 11.3 16.1 0.00 0.00 0.00 80 1010.6
20260510052022 22 150 9.7 16.1 0.00 0.00 0.00 80 1010.6
20260510051541 22 130 9.7 16.1 0.00 0.00 0.00 80 1010.6
20260510051024 22 143 9.7 16.1 0.00 0.00 0.00 79 1010.4
20260510050531 23 147 12.9 16.1 0.00 0.00 0.00 79 1010.2
20260510050031 23 149 9.7 14.5 0.00 0.00 0.00 79 1010.3
20260510045534 23 134 8.0 16.1 0.00 0.00 0.00 79 1010.3
20260510044602 23 151 9.7 14.5 0.00 0.00 0.00 79 1010.3
20260510044048 23 142 8.0 14.5 0.00 0.00 0.00 79 1010.3
20260510043027 23 135 9.7 19.3 0.00 0.00 0.00 79 1010.5
20260510042639 23 113 11.3 20.9 0.00 0.00 0.00 79 1010.5
20260510042119 23 134 9.7 20.9 0.00 0.00 0.00 80 1010.4
20260510041546 23 141 12.9 17.7 0.00 0.00 0.00 82 1010.4
20260510040631 23 126 4.8 11.3 0.00 0.00 0.00 82 1010.2
20260510040028 23 138 6.4 8.0 0.00 0.00 0.00 82 1010.0
20260510035539 23 138 4.8 11.3 0.00 0.00 0.00 82 1009.9
20260510034559 23 140 9.7 12.9 0.00 0.00 0.00 82 1010.0
20260510034052 23 128 6.4 11.3 0.00 0.00 0.00 82 1009.9
20260510033048 23 136 8.0 14.5 0.00 0.00 0.00 82 1009.8
20260510032552 23 148 9.7 14.5 0.00 0.00 0.00 81 1009.8
20260510031558 23 144 9.7 12.9 0.00 0.00 0.00 81 1009.7
20260510031101 24 141 6.4 11.3 0.00 0.00 0.00 80 1009.5
20260510030612 24 134 4.8 11.3 0.00 0.00 0.00 79 1009.4
20260510030029 24 132 4.8 14.5 0.00 0.00 0.00 79 1009.2
20260510025539 24 134 6.4 14.5 0.00 0.00 0.00 79 1009.2
20260510024604 25 207 4.8 6.4 0.00 0.00 0.00 77 1009.1
20260510024051 25 207 4.8 6.4 0.00 0.00 0.00 76 1009.0
20260510023550 25 209 3.2 6.4 0.00 0.00 0.00 75 1009.1
20260510023020 25 209 4.8 6.4 0.00 0.00 0.00 74 1008.9
20260510022631 25 210 4.8 6.4 0.00 0.00 0.00 74 1008.8
20260510021607 25 211 3.2 4.8 0.00 0.00 0.00 74 1008.7
20260510021110 26 211 3.2 4.8 0.00 0.00 0.00 72 1008.7
20260510020620 26 211 3.2 4.8 0.00 0.00 0.00 72 1008.8
20260510020039 26 211 3.2 4.8 0.00 0.00 0.00 71 1008.6
20260510015549 26 211 3.2 6.4 0.00 0.00 0.00 71 1008.6
20260510014615 26 247 3.2 6.4 0.00 0.00 0.00 70 1008.5
20260510014027 26 248 1.6 6.4 0.00 0.00 0.00 70 1008.4
20260510013631 26 248 0.0 0.0 0.00 0.00 0.00 69 1008.3
20260510013040 27 248 0.0 0.0 0.00 0.00 0.00 68 1008.2
20260510012544 27 248 0.0 0.0 0.00 0.00 0.00 67 1008.3
20260510011605 27 248 0.0 4.8 0.00 0.00 0.00 67 1008.0
20260510011056 27 248 3.2 4.8 0.00 0.00 0.00 68 1008.0
20260510010057 27 190 4.8 6.4 0.00 0.00 0.00 67 1007.9
20260510005600 27 190 3.2 6.4 0.00 0.00 0.00 68 1007.8
20260510005110 27 190 4.8 8.0 0.00 0.00 0.00 67 1007.9
20260510004537 28 190 4.8 8.0 0.00 0.00 0.00 66 1007.8
20260510004044 28 185 3.2 4.8 0.00 0.00 0.00 65 1007.8
20260510003108 28 213 0.0 0.0 0.00 0.00 0.00 64 1007.6
20260510002550 28 213 0.0 0.0 0.00 0.00 0.00 65 1007.5
20260510001611 28 213 1.6 6.4 0.00 0.00 0.00 63 1007.4
20260510001101 28 213 3.2 6.4 0.00 0.00 0.00 64 1007.3
20260510000613 27 213 3.2 6.4 0.00 0.00 0.00 64 1007.3
20260510000038 27 214 3.2 14.5 0.00 0.00 0.00 64 1007.3
20260509235528 27 214 6.4 17.7 0.00 0.00 0.00 65 1007.4
20260509234550 26 196 14.5 17.7 0.00 0.00 0.00 67 1007.7
20260509234103 26 196 12.9 19.3 0.00 0.00 0.00 68 1007.7
20260509233606 25 234 14.5 20.9 0.00 0.00 0.00 68 1007.7
20260509233034 25 207 16.1 32.2 0.00 0.00 0.00 67 1008.0
20260509232536 26 207 19.3 32.2 0.00 0.00 0.00 65 1007.9
20260509231543 27 223 19.3 30.6 0.00 0.00 0.00 59 1007.9
20260509231050 28 211 16.1 24.1 0.00 0.00 0.00 60 1008.0
20260509230117 30 22 1.6 9.7 0.00 0.00 0.00 67 1007.4
20260509225600 30 28 1.6 4.8 0.00 0.00 0.00 68 1007.3
20260509225111 31 27 3.2 6.4 0.00 0.00 0.00 67 1007.3
20260509224527 31 26 3.2 6.4 0.00 0.00 0.00 66 1007.1
20260509224040 31 27 4.8 9.7 0.00 0.00 0.00 66 1007.1
20260509223040 31 9 4.8 8.0 0.00 0.00 0.00 64 1006.9
20260509222550 31 333 4.8 8.0 0.00 0.00 0.00 64 1006.9
20260509222053 31 313 4.8 8.0 0.00 0.00 0.00 62 1006.8
20260509221523 31 315 4.8 12.9 0.00 0.00 0.00 61 1006.7
20260509221024 31 319 8.0 12.9 0.00 0.00 0.00 62 1006.6
20260509220050 31 61 4.8 9.7 0.00 0.00 0.00 64 1006.5
20260509215555 31 65 6.4 9.7 0.00 0.00 0.00 64 1006.6
20260509214616 32 22 6.4 9.7 0.00 0.00 0.00 64 1006.9
20260509214027 32 26 6.4 20.9 0.00 0.00 0.00 63 1006.9
20260509213531 32 68 9.7 20.9 0.00 0.00 0.00 62 1006.9
20260509213138 31 337 4.8 17.7 0.00 0.00 0.00 62 1006.9
20260509212630 31 283 3.2 12.9 0.00 0.00 0.00 61 1007.1
20260509212111 31 284 8.0 12.9 0.00 0.00 0.00 60 1007.3
20260509211537 31 258 4.8 12.9 0.00 0.00 0.00 61 1007.3
20260509211040 31 310 4.8 12.9 0.00 0.00 0.00 61 1007.4
20260509210108 31 265 8.0 14.5 0.00 0.00 0.00 61 1007.4
20260509205552 31 258 9.7 12.9 0.00 0.00 0.00 61 1007.4
20260509205103 31 333 4.8 14.5 0.00 0.00 0.00 61 1007.3
20260509204521 31 325 6.4 17.7 0.00 0.00 0.00 62 1007.4
20260509204036 31 287 6.4 17.7 0.00 0.00 0.00 62 1007.5
20260509203100 31 288 6.4 14.5 0.00 0.00 0.00 63 1007.7
20260509202548 31 355 8.0 17.7 0.00 0.00 0.00 62 1007.8
20260509201546 30 319 11.3 17.7 0.00 0.00 0.00 68 1008.0
20260509201031 30 180 3.2 12.9 0.00 0.00 0.00 68 1007.9
20260509200030 30 272 6.4 11.3 0.00 0.00 0.00 67 1008.0
20260509195543 30 334 6.4 9.7 0.00 0.00 0.00 68 1008.1
20260509194608 30 20 3.2 12.9 0.00 0.00 0.00 69 1008.1
20260509194118 30 5 4.8 12.9 0.00 0.00 0.00 68 1008.1
20260509193521 30 320 4.8 8.0 0.00 0.00 0.00 69 1008.2
20260509193034 30 355 4.8 12.9 0.00 0.00 0.00 71 1008.3
20260509192539 30 252 6.4 12.9 0.00 0.00 0.00 69 1008.4
20260509191540 30 9 4.8 12.9 0.00 0.00 0.00 72 1008.4
20260509191111 30 254 6.4 12.9 0.00 0.00 0.00 71 1008.5
20260509190613 29 262 4.8 12.9 0.00 0.00 0.00 75 1008.7
20260509190044 29 319 8.0 12.9 0.00 0.00 0.00 73 1008.8
20260509185547 28 302 4.8 8.0 0.00 0.00 0.00 74 1008.9
20260509185053 28 311 0.0 9.7 0.00 0.00 0.00 76 1008.9
20260509184521 28 311 8.0 9.7 0.00 0.00 0.00 74 1008.9
20260509184026 28 317 3.2 12.9 0.00 0.00 0.00 76 1009.0
20260509183048 28 278 6.4 11.3 0.00 0.00 0.00 76 1009.1
20260509182558 28 257 3.2 11.3 0.00 0.00 0.00 76 1009.1
20260509181557 28 360 4.8 8.0 0.00 0.00 0.00 77 1009.3
20260509181042 28 26 3.2 9.7 0.00 0.00 0.00 80 1009.4
20260509180106 28 351 1.6 9.7 0.00 0.00 0.00 81 1009.6
20260509175608 28 319 8.0 9.7 0.00 0.00 0.00 80 1009.7
20260509175114 27 64 3.2 9.7 0.00 0.00 0.00 80 1009.7
20260509174526 27 315 4.8 14.5 0.00 0.00 0.00 80 1009.8
20260509174029 27 320 9.7 14.5 0.00 0.00 0.00 80 1009.8
20260509173640 27 295 6.4 14.5 0.00 0.00 0.00 81 1009.8
20260509173046 28 223 4.8 12.9 0.00 0.00 0.00 80 1009.9
20260509172531 27 247 4.8 12.9 0.00 0.00 0.00 80 1009.9
20260509171552 27 241 6.4 11.3 0.00 0.00 0.00 79 1009.9
20260509171109 27 205 6.4 9.7 0.00 0.00 0.00 80 1009.9
20260509170108 27 237 3.2 11.3 0.00 0.00 0.00 82 1009.9
20260509165558 27 238 3.2 11.3 0.00 0.00 0.00 82 1010.0
20260509164559 27 226 3.2 11.3 0.00 0.00 0.00 84 1009.8
20260509164059 26 229 0.0 8.0 0.00 0.00 0.00 84 1009.9
20260509163609 26 229 4.8 8.0 0.00 0.00 0.00 84 1010.0
20260509162528 26 248 1.6 11.3 0.00 0.00 0.00 85 1010.0
20260509161554 26 253 8.0 12.9 0.00 0.00 0.00 85 1010.0
20260509161045 26 261 6.4 12.9 0.00 0.00 0.00 85 1010.0
20260509160106 26 226 8.0 14.5 0.00 0.00 0.00 86 1009.8
20260509155618 26 161 8.0 12.9 0.00 0.00 0.00 88 1009.6
20260509155057 26 214 9.7 17.7 0.00 0.00 0.00 88 1009.6
20260509154528 25 181 12.9 22.5 0.00 0.00 0.00 89 1009.5
20260509154041 25 209 16.1 22.5 0.00 0.00 0.00 89 1009.2
20260509153040 25 200 12.9 16.1 0.00 0.00 0.00 92 1009.4
20260509152548 25 215 11.3 17.7 0.00 0.00 0.00 92 1009.5
20260509152053 24 200 12.9 17.7 0.00 0.00 0.00 93 1009.5
20260509151522 24 186 14.5 17.7 0.00 0.00 0.00 93 1009.4
20260509151026 24 194 11.3 16.1 0.00 0.00 0.00 94 1009.5
20260509150042 24 204 8.0 16.1 0.00 0.00 0.00 94 1009.7
20260509145553 23 238 12.9 16.1 0.00 0.00 0.00 94 1009.6
20260509144613 23 213 6.4 9.7 0.00 0.00 0.00 94 1009.6
20260509144104 23 222 4.8 6.4 0.00 0.00 0.00 95 1009.7
20260509143608 23 188 4.8 11.3 0.00 0.00 0.00 95 1009.7